Zurück zum Katalog

LICHUANHONG

AktivWissenschaftSSO
NORAD 69542·PAYLOAD·🇨🇳 China
Dieser Satellitenname wurde noch nicht durch offizielle Quellen bestätigt.

Gestartet Jun 15, 2026 von Jiuquan Satellite Launch Center

Loading…

Nächste Überflüge (nächste 24 Stunden)

TLE

AktuellSource: Space-Track

Epoche: Sep 14, 2026, 11:09 UTC

1 69542U 26134E   26257.46486534  .00003845  00000-0  24323-3 0  9991
2 69542  97.6975 327.9958 0016934 327.3125  32.7054 15.09507127 13776

Verfolge LICHUANHONG in Echtzeit mit AllMySat

Download on the App Store